Skip Page Navigation
NASA JPL Caltech
NASA Logo - Jet Propulsion Laboratory + View the NASA Portal
+ Near-Earth Object (NEO) Program
Search JPL
JPL Home Earth Solar System Stars & Galaxies Technology
JPL Solar System Dynamics
BODIES ORBITS EPHEMERIDES TOOLS PHYSICAL DATA DISCOVERY FAQ SITE MAP
JPL Small-Body Database Browser
Search: [ help ]  
29636 (1998 VH6)
Classification: Main-belt Asteroid          SPK-ID: 2029636
Ephemeris | Orbit Diagram | Orbital Elements | Physical Parameters | Discovery Circumstances ]

[ show orbit diagram ]
Orbital Elements at Epoch 2457000.5 (2014-Dec-09.0) TDB
Reference: JPL 9 (heliocentric ecliptic J2000)
 Element Value Uncertainty (1-sigma)   Units 
e .09969660604806155 6.3759e-08  
a 2.301540381483439 1.4141e-08 AU
q 2.07208461676698 1.4782e-07 AU
i 9.427933299185792 8.7786e-06 deg
node 24.57542032156537 3.2714e-05 deg
peri 68.63212315415585 5.9399e-05 deg
M 179.8446073993926 4.6606e-05 deg
tp 2456363.379990254903
(2013-Mar-11.87999025)
0.00016371 JED
period 1275.341011470381
3.49
1.1754e-05
3.218e-08
d
yr
n .2822774432580542 2.6015e-09 deg/d
Q 2.530996146199899 1.555e-08 AU
  Orbit Determination Parameters
   # obs. used (total)      614  
   data-arc span      8220 days (22.51 yr)  
   first obs. used      1991-11-28  
   last obs. used      2014-05-31  
   planetary ephem.      DE431  
   SB-pert. ephem.      SB431-BIG16  
   condition code      0  
   fit RMS      .55429  
   data source      ORB  
   producer      Otto Matic  
   solution date      2014-Jun-16 14:26:06  

Additional Information
 Earth MOID = 1.10883 AU 
 T_jup = 3.566 
[ show covariance matrix ]

Ephemeris | Orbit Diagram | Orbital Elements | Physical Parameters | Discovery Circumstances ]

Physical Parameter Table
Parameter Symbol Value Units Sigma Reference Notes
absolute magnitude H 15.0 mag n/a MPO296368  

29636 (1998 VH6)          Discovered 1998-Nov-11 by Shimizu, Y., Urata, T. at Nachi-Katsuura (905)
Reference: 20011002/Numbers.arcLast Updated: 2004-04-19

Alternate Designations
 1998 VH6 = 2000 GJ70 
Ephemeris | Orbit Diagram | Orbital Elements | Physical Parameters | Discovery Circumstances ]
ABOUT SSD CREDITS/AWARDS PRIVACY/COPYRIGHT GLOSSARY LINKS
FirstGov 2014-Aug-28 13:21 UT
(server date/time)  
NASA Home Page
Site Manager:   Donald K. Yeomans
Webmaster  Alan B. Chamberlin